[Date Prev][Date Next][Thread Prev][Thread Next][Date Index][Thread Index]

[jamsat-news:1310] jas2info #198



========================   最新情報   ==============================

        Last updated :Mon.31Jul.2000  17:20 (JST) #198

====================================================================
   
  1)アマチュア通信衛星情報 FOシリーズの軌道要素、テレメトリ、
   QSOの状況等をまとめてみました.
   
   FO−29の7月31日(月)のテレメトリは12:07(JST)のパスでは
  デジトーカ運用でした。[jamsat-bb:5423] FO-29デジトーカ開始のjo2oxl局の
  落合 卓史氏の報告によると

   『今日7月23日1042JST頃にFO-29がアナログ系運用からデジトーカ運用に切
  り替わったようです.』
  
  とのことでした. 
 ------------------------ FO-29の軌道要素 ------------------------------        
 
  ■ 軌道要素1:「jamsat−keps:1015」より         
          SB KEPS @ AMSAT  $ORB00209.N
          2Line Orbital Elements 00209.AMSAT

 HR AMSAT ORBITAL ELEMENTS FOR AMATEUR SATELLITES IN NASA FORMAT
 FROM WA5QGD FORT WORTH,TX July 27, 2000
 SEND SUBSCRIBE/UNSUBSCRIBE TO majordomo@amsat.org ONLY
 BID: ORB00209.N

 FO-29
 1 24278U 96046B   00208.76493440 -.00000043  00000-0 -10634-4 0 03491
 2 24278 098.5846 111.4206 0351685 124.4912 238.9981 13.52728926194640

 ■ 軌道要素2:「jamsat−keps:1016」より                    
         SB KEPS @ AMSAT  $ORB00209.O
         Orbital Elements  00209.OSCAR

 HR AMSAT ORBITAL ELEMENTS FOR OSCAR SATELLITES
 FROM WA5QGD FORT WORTH,TX July 27, 2000
 SEND SUBSCRIBE/UNSUBSCRIBE TO majordomo@amsat.org ONLY
 BID: ORB00209.O
 TO ALL RADIO AMATEURS BT
 
  Satellite: FO-29
 Catalog number: 24278
 Epoch time:      00208.76493440
 Element set:    0349
 Inclination:      098.5846 deg
 RA of node:       111.4206 deg
 Eccentricity:    0.0351685
 Arg of perigee:   124.4912 deg
 Mean anomaly:     238.9981 deg
 Mean motion:   13.52728926 rev/day
 Decay rate:       -4.3e-07 rev/day^2
 Epoch rev:           19464
 Checksum:              331

-------------------  FO-29(JAS-2)のテレメトリに関する情報  ---------------------- 
 2) 
 ===========================  FO-29(ふじ3号)のQSO情報等 ======================
   
 3)  [jamsat-bb:5424] Re: FO-29デジトーカ開始

jim> 私も切り替わったのがわかったので、
jim> デジトーカーを聞きました.
jim> ターンスタイルにも単一偏波にもなるアンテナを使って
jim> 偏波面を見てみました.
jim> 
jim> 「なるほど」という感じで面白かったです.
jim> 少しデータを蓄積してみます.
jim> 
jim> "JO2OXL, Takushi Ochiai" wrote:
jim> > 
jim> > 今日7月23日1042JST頃にFO-29がアナログ系運用から
jim> > デジトーカ運用に切 り替わったようです.

jim>   -`` `  --``` -`- ````- `` `` -`  with Mac PowerBook 2400/G3
jim> de 7K4iiN ; Inside Island Network
jim> Shoichi  中島 昌一 Nakashima, E-mail; jim@jsdi.or.jp
jim> 7k4iin@jamsat.or.jp, URL;http://www.jsdi.or.jp/~tina88/7k4iin/
jim>   TKS es CUAGN ----  ........ --... ...--  - ..- ...-.-
    
   [jamsat-bb:5426] Re: 夏休み、デジトーカ受信勉強会

ja1ogz> References: <003e01bff548$e9a4b800$0500a8c0@green.ocn.ne.jp>
ja1ogz> Content-Type: text/plain; charset=iso-2022-jp
ja1ogz> Content-Transfer-Encoding: 7bit
ja1ogz> Sender: owner-jamsat-bb@jamsat.or.jp
ja1ogz> Precedence: bulk
ja1ogz> Reply-To: jamsat-bb@jamsat.or.jp
ja1ogz> X-winbiff-received-account: 192_168_1_1
ja1ogz> X-winbiff-flags: Seen
ja1ogz> Katsuo Ogura wrote:
ja1ogz> > 
ja1ogz> 小倉さん、今晩は。
ja1ogz> 
ja1ogz> FO−29の詳しい受信レポートありがとうございまました。
ja1ogz> やはり、簡単な八木アンテナでも事前に作ってみようと
ja1ogz> 思います。5KHzステップは必要ですね。
ja1ogz> 後で、ハンディーのSTEPを調べてみます。
ja1ogz> 今、分かりましたが10KHzでしたこれだと
ja1ogz> 苦しそうです。
ja1ogz> 
ja1ogz> レポートありがとうございました。大変参考になりました。
ja1ogz> JA1OGZ,金子 明
ja1ogz> 
ja1ogz> Tel:048-781-8833
ja1ogz> e-mail: ja1ogz@attglobal.net


    [jamsat-bb:5448] T88 パラオからの運用

esaki01> Date: Mon, 31 Jul 2000 11:04:11 +0900
esaki01> MIME-Version: 1.0
esaki01> Content-Type: text/plain;
esaki01> 	charset="iso-2022-jp"
esaki01> Content-Transfer-Encoding: 7bit
esaki01> X-Priority: 3
esaki01> X-MSMail-Priority: Normal
esaki01> X-Mailer: Microsoft Outlook Express 5.00.2314.1300
esaki01> X-MimeOLE: Produced By Microsoft MimeOLE V5.00.2314.1300
esaki01> Sender: owner-jamsat-bb@jamsat.or.jp
esaki01> Precedence: bulk
esaki01> Reply-To: jamsat-bb@jamsat.or.jp
esaki01> X-winbiff-received-account: 192_168_1_1
esaki01> X-winbiff-flags: Seen
esaki01> 
esaki01> JAMSATの皆様、
esaki01> 
esaki01> JR6NVG と JA6BX は家族旅行を兼ねて8月6日から10日の
esaki01> 間パラオに行きます。
esaki01> 
esaki01> 当初は滞在先の制約で衛星の運用が危ぶまれましたが、
esaki01> FM衛星(SO-35/UO-14/AO-27)を中心に、FO-20にもQRVの
esaki01> 見通しが一応立ちましたので、控えめに・・ hi  お知らせします。
esaki01> 
esaki01> 現地の事情とロケーション次第で、すべてのオービットに出る
esaki01> という保証は出来ませんが、ウィンドウが有る時には衛星に
esaki01> 優先的にQRVします。HF各バンドと6mにもコンディションに
esaki01> 合わせてQRVしますのでよろしくお願いします。
esaki01> 
esaki01> コールサインとQSL送付・請求のためのHome callは以下の
esaki01> 通りです。
esaki01> 
esaki01> T88VG : Home call JR6NVG
esaki01> T88BX : Home call JA6BX
esaki01> 
esaki01> 73,
esaki01> JA6BX   江 崎  昌 男
esaki01> <esaki01@attglobal.net>

 ===============================================================================
   4)JARL のホームページに運用予定が記載されていましたのでご紹介します.
       ( http://www.jarl.or.jp/Japanese/3_Fuji/new/uy.htm )

        ■ ふじ3号/FOー29/JAS-2 ■  
   
     *** 運用予定について *** 

 ☆☆ デジトーカ運用を7月から運用 ☆☆  
  
 ※7月20日 〜 8月31日 デジトーカ運用

  ※ 7月20日から8月まで,新音声データによるデジトーカ運用を
    行いますので,ご期待ください。
  なお,デジトー カ運用期間中,毎週水曜日に衛星の運用管理を行うため,
  アナログ系運用を実施致します。
  但し,混信等の影響により切り替えることができない場合は,
  デジトーカ運用を連続的に行うこうともありますので,予めご了承願います。 

 最新の情報はテレホンサービス(03−3942−1000)をお聞きください。  
 以後の運用につきましては8月下旬にお知らせいたします。
  
-----------------------    FO−20(JAS-1b)道要素   -------------------------
  5)
  ■ 軌道要素1 :出典はFO-29「ふじ3号」に同じ.
  
  FO-20
 1 20480U 90013C   00208.90783159  .00000026  00000-0  13856-3 0 02592
 2 20480 099.0594 331.8819 0540588 325.4310 031.2720 12.83275536490373
 
  ■ 軌道要素2 :出典はFO−29「ふじ3号」に同じ.
               
  Satellite: FO-20
 Catalog number: 20480
 Epoch time:      00208.90783159
 Element set:    0259
 Inclination:      099.0594 deg
 RA of node:       331.8819 deg
 Eccentricity:    0.0540588
 Arg of perigee:   325.4310 deg
 Mean anomaly:     031.2720 deg
 Mean motion:   12.83275536 rev/day
 Decay rate:        2.6e-07 rev/day^2
 Epoch rev:           49037
 Checksum:              300

 --------------------------------------------------------------------------------
 
         ■ ふじ2号/FO−20/JAS-1b ■      
            
          「ふじ2号」 現況                                                                                  
             
   JAS-1b(ふじ2号)のCWテレメトリ信号に,1997年10月12日12時(JST)の
 日本上空通過時,3桁の数字が繰り返されるはずが3個の長音の繰り返しとなっているという
 異常が発見されました。この不具合は次の通過時からは回復していましたが13日15時20分の
 通過時に再び観測されました。現在はA0の送信が続いています。衛星のアナログ系中継モード
 動作は異常が無く,正常時のテレメトリ内容からは衛星の動作に異常は認められません。従って,
 直ちに衛星のミッションに影響することは無いと予想されますので,当面はアナログ系中継
 モードを継続します。衛星は既に打ち上げてから7年8ヶ月を経ておりますので,今後は監視を
 強化する予定です。アマチュア各位のレポートをお待ちします。
 -------------------------------------------------------------------------------- 
  1997年10月14日 00時35分 確認のテレメトリ音 151 KB (A0) 
  1997年10月14日 11時10分 確認のテレメトリ音 216 KB (異常キーイング) 

  以上 JARLのホ−ムページの http://www.jarl.or.jp/Japanese/3_Fuji/new/fuji.htm

===================== FO-20 ふじ2号 のテレメトリ観測結果 ====================

   6月3日(土)の14:15(JST)のパスの観測結果では以前観測した結果よりも変動のない
 単一周波数でドップラー効果で周波数がずれていくのみの状態に戻っておりました。
                                         
   =============   JAS-2 (ふじ3号)と現在までの情報   ===========
  
  A.電話によるふじ3号の運用情報
      社団法人日本アマチュア連盟によるサービス
           TEL .   03− 3942 − 1000
  B.アマチュア無線FAXサービス
      JARLによるふじ3号の軌道情報(オービットカレンダー)
         FAX No.  03− 3233 −0055
  C.WWWブラウザで情報を簡単に見れる人のためにJAS−2
     ふじ3号の衛星としての運用されるまでの名前)の概要、打ち上げ
     までの状況、運用中における状況を説明したホームページを紹介し
     ておきます.
     社団法人日本アマチュア無線連盟(JARL)のホームページ

          http://www.jarl.or.jp/Japanese/3_Fuji/jasmenu.htm
 
     宇宙開発事業団(NASDA)ホームページ 
          http://www.nasda.go.jp/
         打上げ衛星 :地球観測プラットフォーム技術衛星(ADEOS) 
                       アマチュア衛星3号(JAS-2)
          http://yyy.tksc.nasda.go.jp/Home/Press/Press-j/jas-2_j.html        

  D.JAMSATによる軌道情報の活用
        JAMSATのホームページまたはjamsat−kepsの軌道要素より
      衛星の軌道情報を得る.
     JAMSATホームページ
               URL    http://www.jamsat.or.jp
       上記ホームページでは各地で行われるアマチュア通信衛星に関する
      ミューティングのお知らせや世界のアマチュア衛星に関する情報が
      満載されています.
 ========================================================================  
     JAMSATのメンバーのご協力によりJH6MME(高山 秀造)が
    執筆・編集を担当しております.ご指摘の意見、疑問やこのようにしたら
    というアイデアがありましたら小さなことでもかまいませんので気軽に下
    記アドレスまでご連絡ください.jamsat−newsからjas2
    infoへの転載をJH4PHW局坂井さんに担当して頂いております.  
                  E-mail : jh6mme@jamsat.or.jp : jh4phw@jamsat.or.jp
 ===============================   END  ===============================